Regional Weather Roundup
Issued by NWS

Home | Current Version | Previous Version | Text Only | Print | Product List | Glossary Off
Versions: 1 2 3 4 5 6 7 8 9 10 11 12 13 14 15 16 17 18 19 20 21 22 23 24 25 26 27 28 29 30 31 32 33 34 35 36 37 38 39 40 41 42 43 44 45 46 47 48 49 50

000
ASUS43 KMPX 150210
RWRMN
WEATHER ROUNDUP FOR MINNESOTA
NATIONAL WEATHER SERVICE TWIN CITIES/CHANHASSEN MN
800 PM CST THU DEC 14 2017


NOTE: "FAIR" INDICATES FEW OR NO CLOUDS BELOW 12,000 FEET WITH NO
SIGNIFICANT WEATHER AND/OR OBSTRUCTIONS TO VISIBILITY. N/A MEANS
CURRENT SKY AND/OR WEATHER CONDITIONS ARE NOT AVAILABLE.

MNZ060>063-068>070-150300-
   Twin Cities Metro

CITY           SKY/WX    TMP DP  RH WIND       PRES   REMARKS
TWIN CITIES    CLOUDY    23  17  78 NW10      30.02F WCI  12
ST PAUL        CLOUDY    24  16  71 NW15      30.03F WCI  11
CRYSTAL        CLOUDY    23  13  65 W13       30.00F WCI  11
BLAINE         CLOUDY    25  18  74 NW8       30.00F WCI  16
LAKEVILLE      CLOUDY    21  18  86 W12G17    30.01F WCI   9
EDEN PRAIRIE   CLOUDY    24  16  71 NW13G21   30.01S WCI  12
SOUTH ST PAUL  CLOUDY    24  16  72 NW17      30.02S WCI  11
LAKE ELMO      FLURRIES  23  18  80 W7        30.01F WCI  15
$$
MNZ001>005-007-008-013>017-022>024-027-028-150300-
   Northwest Minnesota

CITY           SKY/WX    TMP DP  RH WIND       PRES   REMARKS
BEMIDJI        FLURRIES  13   9  86 NW8       29.97S WCI   1
HALLOCK        CLOUDY    19  18  93 NW9       30.02S WCI   9
ROSEAU         FLURRIES  16  10  79 NW17      29.99S WCI   0
WARROAD        LGT SNOW  12   9  85 NW14G21   29.98S WCI  -3
THIEF RVR FALL FLURRIES  15  12  88 W6        30.01S WCI   6
CROOKSTON      CLOUDY    18  16  93 CALM      30.04S
FOSSTON        FLURRIES  12  10  92 CALM      30.00F
DETROIT LAKES  MOCLDY    19  16  86 N3        30.01S
MOORHEAD       FLURRIES  21  19  93 CALM      30.04S
PARK RAPIDS    CLOUDY    16  11  80 NW13      29.98S WCI   2
MAHNOMEN       CLOUDY    15  12  87 CALM      30.00F
$$
MNZ006-009>011-018-025>026-150300-
   North Central Minnesota

CITY           SKY/WX    TMP DP  RH WIND       PRES   REMARKS
BAUDETTE       FLURRIES  12   8  84 NW12      29.94F WCI  -2
FLAG ISLAND    CLOUDY    10   7  85 NW15      29.96S WCI  -6
INTL FALLS     LGT SNOW  12   6  77 W8        29.93R WCI   0
WASKISH        LGT SNOW  12  10  92 W7        29.97S WCI   2
BIG FORK       FLURRIES  12   7  79 W5        29.94R WCI   4
LONGVILLE      LGT SNOW  16  10  79 NW5       29.97R WCI   9
GRAND RAPIDS   FLURRIES  13   7  77 NW14      29.95F WCI  -2
CRANE LAKE     LGT SNOW  10   7  85 W3        29.94S VSB 1
ORR            LGT SNOW  10   7  85 W6        29.89S WCI   1
COOK           LGT SNOW  10   9  92 W7        29.91F WCI   0
WALKER         FLURRIES  14  10  83 NW8       29.97S WCI   3
$$
MNZ012-019>021-037-150300-
   Northeast Minnesota

CITY           SKY/WX    TMP DP  RH WIND       PRES   REMARKS
DULUTH         FLURRIES  14   8  77 NW12      29.89F WCI   0
ELY            LGT SNOW  10   9  92 W9        29.88F WCI  -2
HIBBING        CLOUDY    12   6  77 NW10G16   29.91F WCI  -1
EVELETH        FLURRIES  12   6  74 NW10      29.92S WCI  -1
DULUTH HARBOR  FLURRIES  19  12  73 W9        29.96F WCI   9
TWO HARBORS    FLURRIES  18  10  73 W3        29.88F
SILVER BAY     CLOUDY    16  10  79 W3        29.86F
GRAND MARAIS     N/A     19  13  77 NW3       29.90F
G MARAIS ARPRT LGT SNOW  10   5  79 W5        29.81S WCI   2
$$
MNZ029>031-032-039>041-046>048-054>057-064-150300-
   West Central Minnesota

CITY           SKY/WX    TMP DP  RH WIND       PRES   REMARKS
FERGUS FALLS   FLURRIES  21  19  93 W5        30.06S WCI  15
WHEATON        CLOUDY    25  19  80 SW5       30.07S WCI  19
MORRIS         FLURRIES  25  19  80 W6        30.04S WCI  18
ALEXANDRIA     LGT SNOW  21  17  84 W9        30.01S FOG     WCI  11
ELBOW LAKE     CLOUDY    22  20  93 NW7       30.03F WCI  13
WADENA         FLURRIES  18  14  86 NW7       29.99F WCI   8
GLENWOOD       FLURRIES  21  18  86 W9        30.02S WCI  11
APPLETON         N/A     27  21  80 W5        30.06S WCI  21
BENSON         CLOUDY    25  19  80 N7        30.06F WCI  17
ORTONVILLE     CLOUDY    27  21  80 W6        30.06S WCI  20
MADISON        CLOUDY    28  23  80 W6        30.06F WCI  22
WILLMAR        CLOUDY    25  21  86 NW9       30.05S WCI  15
$$
MNZ033>034-036-042>043-049>051-058-059-150300-
   Central Minnesota

CITY           SKY/WX    TMP DP  RH WIND       PRES   REMARKS
ST CLOUD       CLOUDY    21  15  78 NW17      30.00F WCI   7
SAUK CENTRE    FLURRIES  20  16  83 W8        30.02S WCI  11
PAYNESVILLE    CLOUDY    22  18  85 NW12      30.02F WCI  10
AITKIN         FLURRIES  16  12  86 NW5       29.94F WCI   9
PINE RIVER     CLOUDY    16  10  79 NW7       30.00S WCI   6
BRAINERD       CLOUDY    19  12  74 NW9G18    29.97F WCI   8
STAPLES        FLURRIES  18  12  79 NW8       29.99S WCI   7
LONG PRAIRIE   FLURRIES  19  14  79 W8        30.01S WCI   9
LITTLE FALLS   CLOUDY    21  10  63 NW6       30.01S WCI  14
LITCHFIELD     CLOUDY    25  19  80 NW13G22   30.03S WCI  13
BUFFALO        CLOUDY    23  17  75 W12       30.02F WCI  12
MAPLE LAKE     CLOUDY    24  19  82 NW13G21   30.02F WCI  13
HUTCHINSON     CLOUDY    25  20  82 W10       30.04S WCI  14
$$
MNZ037-044-045-052-053-150300-
   East Central Minnesota

CITY           SKY/WX    TMP DP  RH WIND       PRES   REMARKS
PRINCETON      CLOUDY    21  16  79 NW14      29.99S WCI   8
MORA           CLOUDY    19  14  79 W8        29.99F WCI   9
CAMBRIDGE      CLOUDY    23  14  68 W7        29.99F WCI  15
RUSH CITY      CLOUDY    20  15  82 W6        29.98F WCI  12
MOOSE LAKE     CLOUDY    19  12  73 W3        29.93F
HINCKLEY       CLOUDY    21  14  73 NW5       29.96F WCI  15
CLOQUET        FLURRIES  16   9  73 W8        29.91F WCI   5
MCGREGOR       CLOUDY    18  12  79 NW9G17    29.95S WCI   6
$$
MNZ071>073-080-081-089-090-097-098-150300-
   Southwest Minnesota

CITY           SKY/WX    TMP DP  RH WIND       PRES   REMARKS
MONTEVIDEO     CLOUDY    27  21  80 NW5       30.06F WCI  21
GRANITE FALLS  CLOUDY    28  23  81 W10       30.07F WCI  18
CANBY          CLOUDY    28  24  87 NW7       30.07F WCI  20
MARSHALL       CLOUDY    25  22  88 NW9       30.08S WCI  15
REDWOOD FALLS  CLOUDY    27  20  75 NW10      30.06F WCI  17
OLIVIA         PTCLDY    27  21  80 NW10G17   30.04F WCI  17
PIPESTONE      MOCLDY    27  23  86 NW10G16   30.07R WCI  17
WINDOM           N/A     25  12  58 NW18      30.06S WCI  11
WORTHINGTON    CLOUDY    25  23  92 NW12      30.08R WCI  14
JACKSON        CLOUDY    27  23  86 MISG      30.06S
SLAYTON        CLOUDY    25  23  91 NW14      30.06F WCI  14
$$
MNZ065>067-074>077-082>085-091>093-150300-
   South Central Minnesota

CITY           SKY/WX    TMP DP  RH WIND       PRES   REMARKS
MANKATO        FLURRIES  24  18  77 NW17G25   30.05S WCI  11
NEW ULM        CLOUDY    25  18  74 NW13      30.05F WCI  13
ST JAMES       CLOUDY    27  21  80 NW17G28   30.07S WCI  14
FAIRMONT       CLOUDY    26  21  81 NW15G21   30.06S WCI  14
GLENCOE        CLOUDY    25  19  78 NW13G20   30.02F WCI  14
FARIBAULT      CLOUDY    23  18  80 W7        30.02F WCI  15
OWATONNA       CLOUDY    23  19  86 W6        30.01F WCI  16
WASECA         CLOUDY    25  19  80 W16G24    30.04F WCI  12
ALBERT LEA     CLOUDY    25  19  80 W5        30.02S WCI  19
$$
MNZ078>079-086>088-094>096-150300-
   Southeast Minnesota

CITY           SKY/WX    TMP DP  RH WIND       PRES   REMARKS
ROCHESTER      CLOUDY    21  17  84 NW17G32   30.00R WCI   7
RED WING       FLURRIES  23  12  63 NW6       30.01F WCI  16
STANTON        CLOUDY    24  18  79 W6        30.01S WCI  17
DODGE CENTER   CLOUDY    21  18  86 NW9       30.00S WCI  11
WINONA           N/A     27  19  74 NW14      30.02S WCI  15
PRESTON        CLOUDY    22  17  82 NW18G24   29.99F WCI   7
$$
ABBREVIATIONS USED IN REMARKS
   TC - TEMPERATURES IN CELSIUS
  WCI - WIND CHILL INDEX
   HX - HEAT INDEX
  VSB - VISIBILITY
$$




USA.gov is the U.S. government's official web portal to all federal, state and local government web resources and services.